Weather History for Jacksonville NAS, FL

Change the Weather History Date:

Thursday, October 4, 2012

  Actual Average Record
Temperature  
Mean Temperature 82 °F -  
Max Temperature 91 °F 81 °F 91 °F (2012)
Min Temperature 73 °F 69 °F 59 °F (2011)
Cooling Degree Days 17    
Growing Degree Days 32 (Base 50)    
Moisture  
Dew Point 74 °F    
Average Humidity 86    
Maximum Humidity 97    
Minimum Humidity 53    
Precipitation  
Precipitation 0.52 in - - ()
Sea Level Pressure  
Sea Level Pressure 30.17 in    
Wind  
Wind Speed 4 mph (WSW)    
Max Wind Speed 21 mph    
Max Gust Speed 29 mph    
Visibility 8 miles    
Events Rain , Thunderstorm    
Averages and records for this station are not official NWS values.
T = Trace of Precipitation, MM = Missing Value Source: NWS Daily Summary

Daily Weather History Graph

Daily Weather History Graph

Search for Another Location

Airport:

Trip Planner

Search our weather history database for the weather conditions in past years. The results will help you decide how hot, cold, wet, or windy it might be!

Date:

Astronomy

Oct. 04, 2012 Rise Set
Actual Time 7:22 AM EDT 7:07 PM EDT
Civil Twilight 6:58 AM EDT 7:31 PM EDT
Nautical Twilight 6:30 AM EDT 7:59 PM EDT
Astronomical Twilight 6:02 AM EDT 8:27 PM EDT
Moon 10:01 PM EDT (10/4) 11:19 AM EDT (10/4)
Length of Visible Light 12h 33m
Length of Day
11h 45m
Waning Gibbous, 82% of the Moon is Illuminated
Oct 4
Waning Gibbous
Oct 8
Last Quarter
Oct 15
New
Oct 21
First Quarter
Oct 29
Full

Hourly Weather History & Observations

Time (EDT) Temp. Heat Index Dew Point Humidity Pressure Visibility Wind Dir Wind Speed Gust Speed Precip Events Conditions
12:53 AM 75.9 °F - 73.9 °F 94% 30.18 in 4.0 mi Calm Calm - N/A   Overcast
1:53 AM 75.9 °F - 75.0 °F 97% 30.17 in 5.0 mi Calm Calm - N/A   Mostly Cloudy
2:53 AM 75.9 °F - 75.0 °F 97% 30.17 in 5.0 mi Calm Calm - N/A   Mostly Cloudy
3:53 AM 75.9 °F - 73.9 °F 94% 30.15 in 6.0 mi SE 4.6 mph - N/A   Mostly Cloudy
4:53 AM 75.9 °F - 73.9 °F 94% 30.16 in 9.0 mi East 3.5 mph - N/A   Mostly Cloudy
5:53 AM 75.9 °F - 73.9 °F 94% 30.17 in 10.0 mi Calm Calm - N/A   Mostly Cloudy
6:53 AM 75.0 °F - 73.9 °F 96% 30.18 in 10.0 mi Calm Calm - N/A   Mostly Cloudy
7:53 AM 75.9 °F - 73.9 °F 94% 30.19 in 8.0 mi Calm Calm - N/A   Mostly Cloudy
8:53 AM 78.1 °F - 75.0 °F 90% 30.20 in 8.0 mi NNW 4.6 mph - N/A   Mostly Cloudy
9:53 AM 81.0 °F 87.3 °F 75.9 °F 85% 30.21 in 10.0 mi Calm Calm - N/A   Mostly Cloudy
10:53 AM 82.9 °F 90.2 °F 75.0 °F 77% 30.20 in 10.0 mi SE 4.6 mph - N/A   Mostly Cloudy
11:53 AM 87.1 °F 95.4 °F 73.9 °F 65% 30.20 in 10.0 mi SSW 5.8 mph - N/A   Scattered Clouds
12:53 PM 88.0 °F 96.5 °F 73.9 °F 63% 30.18 in 10.0 mi South 6.9 mph - N/A   Mostly Cloudy
1:53 PM 91.0 °F 98.2 °F 72.0 °F 53% 30.15 in 10.0 mi SE 9.2 mph - N/A   Mostly Cloudy
2:03 PM 89.6 °F 98.2 °F 73.4 °F 59% 30.15 in 10.0 mi ESE 9.2 mph - N/A Thunderstorm Thunderstorm
2:53 PM 82.0 °F 85.9 °F 70.0 °F 67% 30.13 in 10.0 mi WNW 18.4 mph 27.6 mph N/A Thunderstorm Thunderstorm
2:57 PM 78.8 °F - 71.6 °F 78% 30.14 in 10.0 mi West 19.6 mph 28.8 mph 0.00 in Rain , Thunderstorm Light Thunderstorms and Rain
3:07 PM 78.8 °F - 69.8 °F 74% 30.15 in 9.0 mi West 20.7 mph 26.5 mph 0.01 in Rain , Thunderstorm Light Thunderstorms and Rain
3:14 PM 75.2 °F - 71.6 °F 89% 30.16 in 2.5 mi West 10.4 mph 24.2 mph 0.09 in Rain , Thunderstorm Heavy Thunderstorms and Rain
3:24 PM 73.4 °F - 71.6 °F 94% 30.17 in 1.8 mi Variable 3.5 mph - 0.23 in Rain , Thunderstorm Heavy Thunderstorms and Rain
3:40 PM 77.0 °F - 73.4 °F 89% 30.15 in 3.0 mi NNE 5.8 mph - 0.30 in Rain , Thunderstorm Light Thunderstorms and Rain
3:53 PM 77.0 °F - 73.9 °F 90% 30.14 in 5.0 mi NE 11.5 mph - 0.31 in Rain , Thunderstorm Light Thunderstorms and Rain
4:53 PM 77.0 °F - 73.0 °F 88% 30.14 in 7.0 mi ENE 6.9 mph - 0.00 in Thunderstorm Thunderstorm
5:53 PM 77.0 °F - 73.9 °F 90% 30.16 in 10.0 mi South 3.5 mph - 0.00 in Rain , Thunderstorm Light Thunderstorms and Rain
6:41 PM 75.2 °F - 73.4 °F 94% 30.16 in 7.0 mi Calm Calm - 0.10 in Rain Rain
6:53 PM 75.9 °F - 73.9 °F 94% 30.15 in 8.0 mi South 3.5 mph - 0.13 in Rain Rain
7:53 PM 75.9 °F - 75.0 °F 97% 30.18 in 9.0 mi West 4.6 mph - 0.07 in Rain Light Rain
8:53 PM 77.0 °F - 75.0 °F 94% 30.17 in 10.0 mi North 4.6 mph - 0.01 in   Overcast
9:53 PM 75.9 °F - 75.0 °F 97% 30.19 in 10.0 mi NNW 3.5 mph - N/A   Overcast
10:53 PM 75.9 °F - 75.0 °F 97% 30.18 in 9.0 mi WNW 5.8 mph - N/A   Overcast
11:53 PM 77.0 °F - 75.9 °F 96% 30.17 in 10.0 mi NNE 5.8 mph - N/A   Overcast